Tracking 19638 objects as of 21-Apr-2019
HD Live streaming from Space Station
objects crossing your sky now

COSMOS 1455

Track COSMOS 1455 now!
10-day predictions
COSMOS 1455 is classified as:


NORAD ID: 14032
Int'l Code: 1983-037A
Perigee: 506.3 km
Apogee: 532.3 km
Inclination: 82.5 °
Period: 94.9 minutes
Semi major axis: 6890 km
RCS: 6.2678 m2 (large)
Launch date: April 23, 1983
Source: Commonwealth of Independent States (former USSR) (CIS)
Launch site: PLESETSK MISSILE AND SPACE COMPLEX (PKMTR)
aabbcc
Your satellite tracking list
Your tracking list is empty




NASA's NSSDC Master Catalog

Two Line Element Set (TLE):
1 14032U 83037A   19110.66987158 +.00000359 +00000-0 +15963-4 0  9998
2 14032 082.5144 142.7734 0018925 101.3249 259.0113 15.17906584963127
Source of the keplerian elements: AFSPC